Regional Weather Roundup
Issued by NWS Little Rock, AR

Home | Current Version | Previous Version | Graphics & Text | Print | Product List | Glossary On
Versions: 1 2 3 4 5 6 7 8 9 10 11 12 13 14 15 16 17 18 19 20 21 22 23 24 25 26 27 28 29 30 31 32 33 34 35 36 37 38 39 40 41 42 43 44
000
ASUS44 KLZK 011505
RWRLZK

WEATHER ROUNDUP FOR ARKANSAS
NATIONAL WEATHER SERVICE LITTLE ROCK AR
1000 AM CDT WED OCT 01 2014

NOTE: "FAIR" INDICATES FEW OR NO CLOUDS BELOW 12,000 FEET WITH NO
SIGNIFICANT WEATHER AND/OR OBSTRUCTIONS TO VISIBILITY.

ARZ001-003-010-029-011600-
NORTHWEST ARKANSAS

CITY           SKY/WX    TMP DP  RH WIND       PRES   REMARKS
FAYETTEVILLE   SUNNY     76  66  71 S15       29.88S
FORT SMITH     MOSUNNY   75  64  68 E3        29.85S
HARRISON       SUNNY     75  63  66 S9        29.90S
BENTONVILLE    MOSUNNY   77  64  65 S12       29.88S
ROGERS         MOSUNNY   77  65  66 SE8       29.89S
SILOAM SPGS    MOSUNNY   75  63  64 S13       29.88S
HIGHFILL       PTSUNNY   75  65  70 S13       29.87S
SPRINGDALE     MOSUNNY   77  66  69 S13       29.90S
$$

ARZ004-005-016-011600-
NORTH CENTRAL ARKANSAS

CITY           SKY/WX    TMP DP  RH WIND       PRES   REMARKS
BATESVILLE     SUNNY    N/A N/A N/A S7        29.90R
FLIPPIN        SUNNY     72  55  56 CALM      29.91R
MTN HOME       SUNNY     75  60  59 SE6       29.90R
$$

ARZ040-041-011600-
WEST CENTRAL ARKANSAS

CITY           SKY/WX    TMP DP  RH WIND       PRES   REMARKS
MENA           MOSUNNY   79  72  78 CALM      29.89S
MOUNT IDA      CLOUDY    76  70  82 SE5       29.88R
$$

ARZ009-017-025-026-028-011600-
NORTHEAST ARKANSAS

CITY           SKY/WX    TMP DP  RH WIND       PRES   REMARKS
CORNING          N/A     77  66  69 S10       29.92S
JONESBORO      MOSUNNY   75  64  68 S8        29.92S
NEWPORT          N/A     80  67  64 S13       29.92S
WALNUT RIDGE   SUNNY     57  34  41 E3        30.03R
BLYTHEVILLE    SUNNY     82  64  54 S9        29.94R
NW BLYTHEVILLE SUNNY     81  63  54 S13       29.93R
$$

ARZ022-023-033-042-044-011600-
CENTRAL ARKANSAS

CITY           SKY/WX    TMP DP  RH WIND       PRES   REMARKS
LITTLE ROCK    MOSUNNY   78  65  63 S6        29.90R
N LITTLE ROCK  MOSUNNY   79  69  70 SW12      29.90R
JACKSONVILLE   SUNNY     78  67  68 S8        29.90R
SEARCY         MOSUNNY   74  66  76 S7        29.92R
HOT SPRINGS    CLOUDY    75  69  81 S5        29.91R
RUSSELLVILLE   SUNNY     76  63  64 VRB3      29.89R
CLINTON        FAIR      73  64  73 CALM      29.92R
$$

ARZ036-011600-
EAST ARKANSAS

CITY           SKY/WX    TMP DP  RH WIND       PRES   REMARKS
WEST MEMPHIS   SUNNY     80  68  66 S9        29.93R
$$

ARZ050-053-066-070-073-011600-
SOUTHWEST ARKANSAS

CITY           SKY/WX    TMP DP  RH WIND       PRES   REMARKS
ARKADELPHIA    LGT RAIN  73  69  87 W5        29.89S
CAMDEN         MOSUNNY   81  68  65 S5        29.89S
TEXARKANA      SUNNY     81  72  74 S8        29.88R HX  85
EL DORADO      SUNNY     81  70  69 S9        29.90R
DE QUEEN       MOSUNNY   78  71  79 CALM      29.86R
$$

ARZ056-057-069-011600-
SOUTHEAST ARKANSAS

CITY           SKY/WX    TMP DP  RH WIND       PRES   REMARKS
PINE BLUFF     CLOUDY    75  69  81 S7        29.91R
STUTTGART      CLOUDY   N/A N/A N/A S9        29.92R
MONTICELLO     MOSUNNY   81  71  71 SW6       29.91S HX  85

$$




USA.gov is the U.S. government's official web portal to all federal, state and local government web resources and services.